Regional Weather Roundup
Issued by NWS Green Bay, WI

Home | Current Version | Previous Version | Graphics & Text | Print | Product List | Glossary Off
Versions: 1 2 3 4 5 6 7 8 9 10 11 12 13 14 15 16 17 18 19 20 21 22 23 24 25 26 27 28 29 30 31 32 33 34 35 36 37 38 39 40 41 42 43 44 45 46 47 48 49 50

000
ASUS43 KGRB 270400
RWRGRB

NORTH-CENTRAL AND NORTHEAST WISCONSIN REGIONAL WEATHER ROUNDUP
NATIONAL WEATHER SERVICE GREEN BAY WI
1100 PM CDT WED APR 26 2017

WIZ005-009-010>012-018-019-270500-
NORTH CENTRAL WISCONSIN

CITY           SKY/WX    TMP DP  RH WIND       PRES   REMARKS
IRONWOOD       LGT SNOW  28  26  92 N8        29.56F FOG
MANITOWISH WTR NOT AVBL
ARBOR VITAE    NOT AVBL
EAGLE RIVER    NOT AVBL
LAND O LAKES   NOT AVBL
RHINELANDER    CLOUDY    35  35 100 N6        29.48S
PHILLIPS       CLOUDY    31  31  96 N8        29.50F
ANTIGO         NOT AVBL
TOMAHAWK       NOT AVBL
MERRILL        NOT AVBL
$$

WIZ013-073-270500-
NORTHEAST WISCONSIN

CITY           SKY/WX    TMP DP  RH WIND       PRES   REMARKS
IRON MOUNTAIN  CLOUDY    40  36  86 NW9       29.44F
MARINETTE      CLOUDY    58  54  86 CALM      29.43R
$$

WIZ017-030-035>037-045-270500-
CENTRAL WISCONSIN

CITY           SKY/WX    TMP DP  RH WIND       PRES   REMARKS
MEDFORD        NOT AVBL
WAUSAU         CLOUDY    40  38  93 N8        29.46R
MOSINEE        NOT AVBL
MARSHFIELD     CLOUDY    39  36  89 NW9       29.47S
WISC RAPIDS    CLOUDY    41  40  96 NW10      29.49R
STEVENS POINT  NOT AVBL
WAUPACA        NOT AVBL
SHAWANO        NOT AVBL
CLINTONVILLE   NOT AVBL
WAUTOMA        CLOUDY    45  43  93 NW10      29.48R
$$

WIZ038-039-048-051-270500-
FOX VALLEY

CITY           SKY/WX    TMP DP  RH WIND       PRES   REMARKS
NWS GREEN BAY  CLOUDY    53  51  93 W9        29.44S
APPLETON       CLOUDY    48  46  93 W10       29.44S
OSHKOSH        CLOUDY    48  46  93 W12       29.45S
FOND DU LAC    CLOUDY    50  46  86 NW9       29.46R
$$

WIZ022-050-052-270500-
EAST CENTRAL WISCONSIN

CITY           SKY/WX    TMP DP  RH WIND       PRES   REMARKS
EPHRAIM        NOT AVBL
WASHINGTON ISL NOT AVBL
STURGEON BAY   CLOUDY    56  52  86 W7        29.43F
MANITOWOC      NOT AVBL
SHEBOYGAN      LGT RAIN  58  55  90 W7        29.43F
$$

LMZ563-521-522-541>543-270500-
LAKESHORE

STATION/POSITION TIME  TEMP    WIND        PRES    VSBY  WAVE
                       AIR SEA DIR/SP/G                  HT/PER
                 (UTC) (F)     (DEG/KT/KT) (MB)    (MI)  (FT/S)
SHEBOYGAN LKSHOR 0300   61     260/  7/  8  996.7R
KEWAUNEE LKSHORE 0330   61     270/  6/ 11  996.2R
NORTHPORT PIER   0340   47     230/  1/  4  996.6F
N MID LAKE BUOY  0250   42 37  180/  8/ 10  998.7R         2/ 5
CHAMBERS ISLAND  0340   57     210/  3/  7  996.3S
MENOMINEE LKSHOR 0330   58     260/  5/  8  995.7R
$$



USA.gov is the U.S. government's official web portal to all federal, state and local government web resources and services.